Terug naar catalogus

FENGYUN 1C DEB

ActiefSSO
NORAD 31223·DEBRIS·🇨🇳 China

Gelanceerd May 10, 1999 vanaf Taiyuan Satellite Launch Center

Loading…

Volgende Passages (komende 24 uur)

TLE

VersSource: Space-Track

Epoch: Sep 14, 2026, 09:30 UTC

1 31223U 99025BLD 26257.39612768  .00003755  00000-0  29343-2 0  9993
2 31223  99.0396 135.5471 0248599  25.0576 336.2405 13.79303629965261

Volg FENGYUN 1C DEB in realtime met AllMySat

Download on the App Store